Overview Statistics Trail Chart Weather Telemetry Raw packets
 

This is the latest recevied weather packets stored in our database for station/object DB7GV-8. If no packets are shown the sender has not sent any weather packets the latest 10 day(s).

<< 33 34 35 36 >>
Time Temp. Humidity Pressure Rain* Wind** Luminosity Snow
1776906392 3.89° C 64% 1024.7 hPa - - - -
1776905487 3.89° C 63% 1024.7 hPa - - - -
1776904582 3.89° C 63% 1024.6 hPa - - - -
1776903676 4.44° C 62% 1024.8 hPa - - - -
1776902771 4.44° C 61% 1024.7 hPa - - - -
1776901865 4.44° C 61% 1024.8 hPa - - - -
1776900960 5° C 60% 1024.9 hPa - - - -
1776900055 5° C 59% 1024.8 hPa - - - -
1776899149 5° C 58% 1024.7 hPa - - - -
1776898244 5.56° C 57% 1024.7 hPa - - - -
1776897339 6.11° C 55% 1024.6 hPa - - - -
1776896433 6.11° C 56% 1024.5 hPa - - - -
1776895528 6.11° C 56% 1024.5 hPa - - - -
1776894622 6.11° C 55% 1024.4 hPa - - - -
1776893716 6.67° C 55% 1024.4 hPa - - - -
1776892811 7.22° C 54% 1024.4 hPa - - - -
1776891906 7.22° C 53% 1024.2 hPa - - - -
1776891000 7.22° C 53% 1024 hPa - - - -
1776890095 7.78° C 52% 1023.8 hPa - - - -
1776889190 8.33° C 50% 1023.6 hPa - - - -
1776888285 8.89° C 50% 1023.6 hPa - - - -
1776887379 8.89° C 49% 1023.4 hPa - - - -
1776886473 9.44° C 47% 1023.2 hPa - - - -
1776885567 10° C 44% 1023.1 hPa - - - -

* Rain since midnight (hover to see other rain measurements)
** Current wind speed in m/s (hover to see current wind gust speed)